Location: Allen Generating Plant
(35.0740°N, 90.1490°W)
Time: 18:47:14
(UTC+00:00)

Explorer 11/Cluster Stage 4 - Visible Passes

Search period start: 11 December 2025 00:00
Search period end: 21 December 2025 00:00
Orbit: 463 x 1181 km, 28.8° (Epoch: 11 December)

Date Brightness Start Highest point End Pass type
(mag) Time Alt. Az. Time Alt. Az. Time Alt. Az.
11 Dec 8.7 00:13:03 10° SSW 00:17:54 19° SSE 00:21:08 14° SE visible
11 Dec 8.7 01:59:19 10° SW 02:02:24 24° SW 02:02:24 24° SW visible
11 Dec 8.8 23:48:51 10° SSW 23:54:04 20° SSE 23:58:52 10° ESE visible
12 Dec 8.1 01:35:13 10° SW 01:40:15 34° SSW 01:40:15 34° SSW visible
12 Dec 8.9 23:24:42 10° SSW 23:30:12 22° SSE 23:35:19 10° ESE visible
13 Dec 7.8 01:11:08 10° SW 01:17:51 39° SSE 01:18:03 39° SSE visible
13 Dec 9.7 02:59:07 10° WSW 02:59:19 11° WSW 02:59:19 11° WSW visible
14 Dec 7.8 00:47:02 10° SW 00:54:00 41° SSE 00:55:49 35° SE visible
14 Dec 9.2 02:35:03 10° WSW 02:37:06 19° WSW 02:37:06 19° WSW visible
15 Dec 8.0 00:22:57 10° SW 00:30:06 42° SSE 00:33:35 25° ESE visible
15 Dec 8.6 02:10:58 10° WSW 02:14:52 31° WSW 02:14:52 31° WSW visible
15 Dec 8.0 23:58:53 10° WSW 00:06:10 44° SSE 00:11:20 17° ESE visible
16 Dec 7.9 01:46:53 10° WSW 01:52:36 44° SW 01:52:36 44° SW visible
16 Dec 8.1 23:34:52 10° WSW 23:42:13 45° SSE 23:49:05 10° E visible
17 Dec 7.5 01:22:48 10° WSW 01:30:11 52° S 01:30:22 52° S visible
17 Dec 9.8 03:11:26 10° W 03:11:38 11° W 03:11:38 11° W visible
17 Dec 8.2 23:10:53 10° WSW 23:18:15 46° SSE 23:25:18 10° E visible
18 Dec 7.7 00:58:45 10° WSW 01:06:15 53° S 01:08:08 43° SE visible
18 Dec 9.4 02:47:21 10° W 02:49:25 18° WSW 02:49:25 18° WSW visible
19 Dec 7.8 00:34:43 10° WSW 00:42:17 53° S 00:45:56 29° ESE visible
19 Dec 8.8 02:23:16 10° W 02:27:13 28° WSW 02:27:13 28° WSW visible
20 Dec 7.9 00:10:43 10° WSW 00:18:18 54° S 00:23:47 18° ESE visible
20 Dec 8.3 01:59:11 10° W 02:05:04 36° SW 02:05:04 36° SW visible
